TimeEDT,TemperatureF,Dew PointF,Humidity,Sea Level PressureIn,VisibilityMPH,Wind Direction,Wind SpeedMPH,Gust SpeedMPH,PrecipitationIn,Events,Conditions,WindDirDegrees,DateUTC
12:15 AM,42.8,23.9,47,29.73,10.0,WNW,6.9,17.3,N/A,,Overcast,290,2014-03-13 04:15:00
12:35 AM,42.4,23.9,48,29.73,10.0,NW,6.9,-,N/A,,Overcast,310,2014-03-13 04:35:00
12:55 AM,42.1,21.9,45,29.75,10.0,NW,10.4,18.4,N/A,,Overcast,310,2014-03-13 04:55:00
1:15 AM,41.4,20.5,43,29.75,10.0,NW,12.7,24.2,N/A,,Mostly Cloudy,320,2014-03-13 05:15:00
1:35 AM,40.1,21.4,47,29.76,10.0,NNW,9.2,20.7,N/A,,Mostly Cloudy,330,2014-03-13 05:35:00
1:55 AM,39.4,18.5,43,29.77,10.0,NW,5.8,-,N/A,,Scattered Clouds,310,2014-03-13 05:55:00
2:15 AM,39.2,17.6,42,29.78,10.0,NW,6.9,-,N/A,,Mostly Cloudy,310,2014-03-13 06:15:00
2:35 AM,38.3,18.5,45,29.79,10.0,NW,5.8,-,N/A,,Mostly Cloudy,310,2014-03-13 06:35:00
2:55 AM,37.8,18.7,46,29.79,10.0,NW,6.9,-,N/A,,Mostly Cloudy,310,2014-03-13 06:55:00
3:15 AM,37.8,17.4,44,29.79,10.0,NW,9.2,18.4,N/A,,Mostly Cloudy,310,2014-03-13 07:15:00
3:35 AM,37.4,15.4,41,29.80,10.0,NW,9.2,18.4,N/A,,Scattered Clouds,310,2014-03-13 07:35:00
3:55 AM,36.5,14.2,40,29.81,10.0,NW,12.7,19.6,N/A,,Scattered Clouds,310,2014-03-13 07:55:00
4:15 AM,36.0,13.1,39,29.81,10.0,NW,10.4,23.0,N/A,,Clear,320,2014-03-13 08:15:00
4:35 AM,35.8,11.1,36,29.81,10.0,NW,9.2,21.9,N/A,,Clear,310,2014-03-13 08:35:00
4:55 AM,35.2,11.3,37,29.82,10.0,WNW,8.1,20.7,N/A,,Clear,300,2014-03-13 08:55:00
5:15 AM,34.9,10.0,36,29.83,10.0,NW,9.2,19.6,N/A,,Clear,320,2014-03-13 09:15:00
5:35 AM,34.7,9.0,34,29.84,10.0,WNW,9.2,21.9,N/A,,Clear,300,2014-03-13 09:35:00
5:55 AM,34.3,9.5,36,29.86,10.0,NW,8.1,21.9,N/A,,Clear,320,2014-03-13 09:55:00
6:15 AM,33.8,10.2,38,29.87,10.0,NW,8.1,-,N/A,,Clear,320,2014-03-13 10:15:00
6:35 AM,33.3,11.1,40,29.88,10.0,WNW,5.8,-,N/A,,Clear,300,2014-03-13 10:35:00
6:55 AM,33.1,11.1,40,29.89,10.0,WNW,6.9,-,N/A,,Clear,290,2014-03-13 10:55:00
7:15 AM,32.5,10.8,40,29.89,10.0,WNW,6.9,-,N/A,,Clear,300,2014-03-13 11:15:00
7:35 AM,32.5,10.4,40,29.91,10.0,WNW,6.9,-,N/A,,Clear,300,2014-03-13 11:35:00
7:55 AM,32.2,10.6,41,29.92,10.0,WNW,3.5,-,N/A,,Clear,290,2014-03-13 11:55:00
8:15 AM,32.0,10.9,42,29.93,10.0,Calm,Calm,-,N/A,,Clear,0,2014-03-13 12:15:00
8:35 AM,32.4,11.8,43,29.95,10.0,Calm,Calm,-,N/A,,Clear,0,2014-03-13 12:35:00
8:55 AM,34.3,12.0,40,29.96,10.0,WNW,4.6,-,N/A,,Clear,290,2014-03-13 12:55:00
9:15 AM,35.4,11.1,37,29.98,10.0,NW,5.8,-,N/A,,Clear,320,2014-03-13 13:15:00
9:35 AM,36.3,10.6,35,29.99,10.0,WNW,8.1,16.1,N/A,,Clear,300,2014-03-13 13:35:00
9:55 AM,37.2,10.6,33,30.00,10.0,NW,12.7,17.3,N/A,,Clear,320,2014-03-13 13:55:00
10:15 AM,37.8,10.4,32,30.01,10.0,NNW,9.2,16.1,N/A,,Clear,330,2014-03-13 14:15:00
10:35 AM,38.1,10.4,32,30.01,10.0,WNW,10.4,17.3,N/A,,Clear,300,2014-03-13 14:35:00
10:55 AM,39.2,10.0,30,30.02,10.0,NNW,8.1,20.7,N/A,,Clear,330,2014-03-13 14:55:00
11:15 AM,39.7,9.0,28,30.02,10.0,NW,6.9,16.1,N/A,,Clear,320,2014-03-13 15:15:00
11:35 AM,40.8,5.7,23,30.03,10.0,NW,10.4,17.3,N/A,,Clear,310,2014-03-13 15:35:00
11:55 AM,41.9,3.9,21,30.04,10.0,WNW,11.5,18.4,N/A,,Clear,300,2014-03-13 15:55:00
12:15 PM,42.1,3.7,20,30.04,10.0,NNW,9.2,18.4,N/A,,Clear,330,2014-03-13 16:15:00
12:35 PM,42.8,-2.2,15,30.05,10.0,NW,12.7,25.3,N/A,,Clear,310,2014-03-13 16:35:00
12:55 PM,43.7,-0.9,16,30.06,10.0,NNW,9.2,21.9,N/A,,Clear,330,2014-03-13 16:55:00
1:15 PM,44.2,-3.1,14,30.06,10.0,NW,11.5,20.7,N/A,,Clear,320,2014-03-13 17:15:00
1:35 PM,44.4,-3.6,13,30.05,10.0,WNW,13.8,19.6,N/A,,Clear,300,2014-03-13 17:35:00
1:55 PM,45.3,-1.3,14,30.05,10.0,North,10.4,19.6,N/A,,Clear,350,2014-03-13 17:55:00
2:15 PM,45.9,-2.2,14,30.05,10.0,North,13.8,19.6,N/A,,Clear,350,2014-03-13 18:15:00
2:35 PM,46.2,-2.7,13,30.05,10.0,North,11.5,18.4,N/A,,Clear,360,2014-03-13 18:35:00
2:55 PM,46.6,-2.9,13,30.05,10.0,NNW,10.4,21.9,N/A,,Clear,340,2014-03-13 18:55:00
3:15 PM,47.1,-2.0,13,30.05,10.0,NW,9.2,16.1,N/A,,Clear,320,2014-03-13 19:15:00
3:35 PM,47.3,-2.2,13,30.05,10.0,North,9.2,-,N/A,,Clear,350,2014-03-13 19:35:00
3:55 PM,47.5,-1.1,13,30.05,10.0,NNW,6.9,23.0,N/A,,Clear,330,2014-03-13 19:55:00
4:15 PM,47.8,-2.4,12,30.06,10.0,NW,9.2,16.1,N/A,,Clear,310,2014-03-13 20:15:00
4:35 PM,48.4,-1.5,13,30.06,10.0,NW,8.1,-,N/A,,Clear,320,2014-03-13 20:35:00
4:55 PM,48.4,-2.0,12,30.07,10.0,NW,8.1,-,N/A,,Clear,320,2014-03-13 20:55:00
5:15 PM,48.2,-2.7,12,30.07,10.0,NNW,6.9,-,N/A,,Clear,340,2014-03-13 21:15:00
5:35 PM,48.0,-2.2,12,30.08,10.0,NW,9.2,-,N/A,,Clear,320,2014-03-13 21:35:00
5:55 PM,47.8,-1.7,13,30.09,10.0,NNW,5.8,-,N/A,,Clear,340,2014-03-13 21:55:00
6:15 PM,47.7,-2.4,13,30.10,10.0,NNW,8.1,-,N/A,,Clear,330,2014-03-13 22:15:00
6:35 PM,47.5,-1.3,13,30.11,10.0,West,4.6,-,N/A,,Clear,280,2014-03-13 22:35:00
6:55 PM,46.9,-2.0,13,30.12,10.0,NW,5.8,-,N/A,,Clear,310,2014-03-13 22:55:00
7:15 PM,46.0,-2.7,13,30.13,10.0,WNW,5.8,-,N/A,,Clear,300,2014-03-13 23:15:00
7:35 PM,44.8,-2.4,14,30.14,10.0,WNW,4.6,-,N/A,,Clear,300,2014-03-13 23:35:00
7:55 PM,43.2,-1.1,16,30.15,10.0,WNW,3.5,-,N/A,,Clear,290,2014-03-13 23:55:00
8:15 PM,41.9,2.5,19,30.15,10.0,West,3.5,-,N/A,,Clear,280,2014-03-14 00:15:00
8:35 PM,40.1,5.9,24,30.16,10.0,Calm,Calm,-,N/A,,Clear,0,2014-03-14 00:35:00
8:55 PM,38.7,7.3,27,30.18,10.0,West,3.5,-,N/A,,Clear,270,2014-03-14 00:55:00
9:15 PM,36.1,10.4,35,30.18,10.0,NW,3.5,-,N/A,,Clear,310,2014-03-14 01:15:00
9:35 PM,39.2,5.7,25,30.19,10.0,Calm,Calm,-,N/A,,Clear,0,2014-03-14 01:35:00
9:55 PM,37.4,7.5,29,30.19,10.0,WNW,4.6,-,N/A,,Clear,300,2014-03-14 01:55:00
10:15 PM,37.6,5.9,27,30.21,10.0,Calm,Calm,-,N/A,,Clear,0,2014-03-14 02:15:00
10:35 PM,37.2,6.8,28,30.21,10.0,WNW,3.5,-,N/A,,Clear,290,2014-03-14 02:35:00
10:55 PM,37.0,5.9,27,30.21,10.0,Calm,Calm,-,N/A,,Clear,0,2014-03-14 02:55:00
11:15 PM,36.0,5.9,29,30.22,10.0,Calm,Calm,-,N/A,,Clear,0,2014-03-14 03:15:00
11:35 PM,31.8,10.0,40,30.22,10.0,Calm,Calm,-,N/A,,Clear,0,2014-03-14 03:35:00
11:55 PM,31.5,12.0,45,30.21,10.0,Calm,Calm,-,N/A,,Clear,0,2014-03-14 03:55:00